Weather History for KFSD - January, 2011

Change the Weather History Date:

Thursday, January 20, 2011

  Actual Average Record
Temperature  
Mean Temperature -1 °F 17 °F  
Max Temperature 7 °F 26 °F 57 °F (1944)
Min Temperature -9 °F 7 °F -24 °F (1954)
Degree Days  
Heating Degree Days 66 48  
Month to date heating degree days 1110 978  
Since 1 July heating degree days 4101 4111  
Cooling Degree Days 0 0  
Month to date cooling degree days 0 0  
Year to date cooling degree days 0 0  
Moisture  
Dew Point -7 °F    
Average Humidity 76    
Maximum Humidity 87    
Minimum Humidity 65    
Precipitation  
Precipitation T in 0.02 in 0.49 in (1937)
Month to date precipitation 0.78 0.36  
Year to date precipitation 0.78 0.36  
Snow  
Snow T in 0.20 in 5.30 in (1998)
Month to date snowfall 8.9 4.9  
Since 1 July snowfall 27.9 21.8  
Snow Depth 10.00 in    
Sea Level Pressure  
Sea Level Pressure 30.30 in    
Wind  
Wind Speed 8 mph (NW)    
Max Wind Speed 22 mph    
Max Gust Speed 25 mph    
Visibility 10 miles    
Events      
T = Trace of Precipitation, MM = Missing Value Source: NWS Daily Summary

Daily Weather History Graph

Daily Weather History Graph

Search for Another Location

Airport or City:

Trip Planner

Search our weather history database for the weather conditions in past years. The results will help you decide how hot, cold, wet, or windy it might be!

Date:

Astronomy

Jan. 20, 2011 Rise Set
Actual Time 7:54 AM CST 5:22 PM CST
Civil Twilight 7:22 AM CST 5:53 PM CST
Nautical Twilight 6:47 AM CST 6:28 PM CST
Astronomical Twilight 6:13 AM CST 7:02 PM CST
Moon 6:49 PM CST (1/20) 8:11 AM CST (1/20)
Length of Visible Light 10h 30m
Length of Day
9h 27m
Full, 99% of the Moon is Illuminated
Jan 20
Full
Jan 26
Last Quarter
Feb 2
New
Feb 11
First Quarter
Feb 18
Full

Hourly Weather History & Observations

Time (CST) Temp. Windchill Dew Point Humidity Pressure Visibility Wind Dir Wind Speed Gust Speed Precip Events Conditions
12:56 AM -0.9 °F -8.9 °F -5.1 °F 83% 30.32 in 10.0 mi Variable 3.5 mph - N/A   Clear
1:56 AM 1.0 °F - -4.0 °F 79% 30.30 in 10.0 mi Calm Calm - N/A   Clear
2:56 AM 1.9 °F -9.2 °F -4.0 °F 76% 30.30 in 10.0 mi West 5.8 mph - N/A   Clear
3:56 AM 1.9 °F -10.6 °F -4.0 °F 76% 30.30 in 10.0 mi West 6.9 mph - N/A   Clear
4:56 AM 1.0 °F - -5.1 °F 75% 30.30 in 10.0 mi Calm Calm - N/A   Clear
5:35 AM 1.4 °F -11.3 °F -4.0 °F 78% 30.19 in 10.0 mi West 6.9 mph - N/A   Mostly Cloudy
5:56 AM 1.9 °F -7.6 °F -4.0 °F 76% 30.31 in 10.0 mi West 4.6 mph - N/A   Mostly Cloudy
6:56 AM 6.1 °F -9.5 °F 1.0 °F 80% 30.32 in 10.0 mi NW 11.5 mph - 0.00 in   Scattered Clouds
7:56 AM 1.0 °F -10.3 °F -2.0 °F 87% 30.34 in 10.0 mi NW 5.8 mph - N/A   Partly Cloudy
8:56 AM 3.9 °F -13.0 °F -0.9 °F 80% 30.35 in 10.0 mi NW 12.7 mph - N/A   Clear
9:56 AM 3.9 °F -14.3 °F -4.0 °F 70% 30.35 in 10.0 mi NW 15.0 mph - N/A   Clear
10:56 AM 3.9 °F -15.6 °F -2.9 °F 73% 30.38 in 10.0 mi NNW 17.3 mph 24.2 mph N/A   Partly Cloudy
11:56 AM 1.9 °F -16.9 °F -7.1 °F 66% 30.37 in 10.0 mi NNW 15.0 mph - N/A   Clear
12:56 PM 1.9 °F -18.1 °F -7.1 °F 66% 30.35 in 10.0 mi NNW 17.3 mph - N/A   Partly Cloudy
1:56 PM 1.0 °F -18.0 °F -8.0 °F 66% 30.33 in 10.0 mi NW 15.0 mph - N/A   Clear
2:56 PM -0.0 °F -19.4 °F -9.0 °F 66% 30.32 in 10.0 mi NW 15.0 mph - N/A   Clear
3:56 PM -2.0 °F -17.7 °F -11.0 °F 66% 30.32 in 10.0 mi NW 9.2 mph - N/A   Clear
4:56 PM -5.1 °F -20.4 °F -13.0 °F 69% 30.30 in 10.0 mi NW 8.1 mph - N/A   Clear
5:56 PM -6.0 °F -14.7 °F -11.9 °F 75% 30.28 in 10.0 mi NW 3.5 mph - N/A   Scattered Clouds
6:56 PM -6.0 °F - -11.9 °F 75% 30.26 in 10.0 mi Calm Calm - N/A   Partly Cloudy
7:56 PM -5.1 °F -13.6 °F -11.9 °F 72% 30.26 in 10.0 mi NW 3.5 mph - N/A   Partly Cloudy
8:56 PM -6.0 °F -14.7 °F -13.0 °F 72% 30.25 in 10.0 mi WNW 3.5 mph - N/A   Clear
9:56 PM -8.0 °F - -14.1 °F 75% 30.23 in 10.0 mi Calm Calm - N/A   Partly Cloudy
10:56 PM -6.0 °F -16.9 °F -13.0 °F 72% 30.23 in 10.0 mi NE 4.6 mph - N/A   Scattered Clouds
11:56 PM -6.0 °F -16.9 °F -13.0 °F 72% 30.20 in 10.0 mi East 4.6 mph - N/A   Scattered Clouds